Regional Weather Roundup
Issued by NWS

Home | Current Version | Previous Version | Text Only | Print | Product List | Glossary Off
Versions: 1 2 3 4 5 6 7 8 9 10 11 12 13 14 15 16 17 18 19 20 21 22 23 24 25 26 27 28 29 30 31 32 33 34 35 36 37 38 39 40 41 42 43 44 45 46 47 48 49 50

000
ASUS43 KDMX 211406
RWRIA

WEATHER ROUNDUP FOR IOWA
NATIONAL WEATHER SERVICE DES MOINES IA
800 AM CST TUE NOV 21 2017

NOTE: "FAIR" INDICATES FEW OR NO CLOUDS BELOW 12,000 FEET WITH NO
SIGNIFICANT WEATHER AND/OR OBSTRUCTIONS TO VISIBILITY.

* - THESE STATIONS ARE NOT NWS STATIONS...THUS NOT UNDER NWS
QUALITY CONTROL.  THEY ALSO DO NOT REPORT WEATHER SUCH
AS PRECIPITATION OR FOG.

IAZ001>003-012>014-020>022-031>034-043>046-211500-
   NORTHWEST IOWA

CITY           SKY/WX    TMP DP  RH WIND       PRES   REMARKS
CARROLL *      CLOUDY    37  18  44 NW29G39   29.97R WCI  25
CHEROKEE *     CLOUDY    24  10  56 N22G33    30.07R WCI   9
DENISON *      CLOUDY    37  16  41 NW26G37   30.02R WCI  26
LE MARS *      CLEAR     21  10  63 NW15G29   30.10R WCI   8
ORANGE CITY *  CLEAR     21  10  63 NW18G28   30.08R WCI   6
SHELDON *      CLEAR     19   9  63 NW20G30   30.06R WCI   4
SIOUX CITY     CLOUDY    25   9  50 NW31G43   30.09R WCI   8
SPENCER        CLEAR     20   9  62 NW23G35   30.04R WCI   3
STORM LAKE *   CLOUDY    25  10  54 NW25G37   30.01R WCI   9
$$

IAZ055>058-069>071-079>083-090>094-211500-
   SOUTHWEST IOWA

CITY           SKY/WX    TMP DP  RH WIND       PRES   REMARKS
ATLANTIC *     CLOUDY    39  23  52 NW24      29.97R WCI  28
AUDUBON *      CLOUDY    39  21  48 NW23G30   29.97R WCI  29
CLARINDA *     CLOUDY    41  28  60 N15G24    30.00
COUNCIL BLFS * CLOUDY    37  27  65 NW14      30.00R WCI  29
CRESTON *      MIX PCPN  37  28  70 N15G22    29.96R WCI  28
HARLAN  *      CLOUDY    39  25  56 N23       30.02R WCI  29
LAMONI         CLOUDY    42  24  49 N15       29.93R
RED OAK *      CLOUDY    39  28  65 N13G18    29.99R WCI  32
SHENANDOAH *   CLOUDY    39  28  65 N12G18    30.01R WCI  32
$$

IAZ047>049-059>061-072>074-084-211500-
   CENTRAL IOWA

CITY           SKY/WX    TMP DP  RH WIND       PRES   REMARKS
AMES           CLOUDY    39  19  44 NW28G37   29.93R WCI  28
ANKENY *       CLOUDY    39  19  45 NW17G24   29.95R WCI  30
BOONE *        CLOUDY    37  19  48 NW21G31   29.92R WCI  27
CHARITON *     MIX PCPN  39  25  56 NW22      29.94R WCI  29
DES MOINES     MOCLDY    40  22  48 NW16G26   29.94R WCI  31
GRINNELL*      CLOUDY    38  21  51 NW22      29.91R WCI  27
KNOXVILLE *    CLOUDY    39  23  52 NW15      29.92R WCI  31
MARSHALLTOWN   CLOUDY    37  20  50 NW26G35   29.89R WCI  25
NEWTON *       CLOUDY    39  19  45 NW18G25   29.92R WCI  30
PELLA *        DRIZZLE   38  26  62 NW12      29.94R WCI  30
PERRY *        CLOUDY    38  16  41 NW24G35   29.96R WCI  27
$$

IAZ004>006-015-016-023>025-035-036-211500-
   NORTH CENTRAL IOWA

CITY           SKY/WX    TMP DP  RH WIND       PRES   REMARKS
ALGONA *       CLEAR     23  14  68 NW26G37   29.98R WCI   6
CLARION *      CLOUDY    28  19  69 N30G38    29.95R WCI  13
ESTHERVILLE    CLEAR     20  11  68 NW23G30   30.00R WCI   3
FORT DODGE *   CLOUDY    32  17  54 N17G25    29.96R WCI  21
MASON CITY     CLOUDY    24  13  62 NW29G38   29.94R WCI   7
FOREST CITY *    N/A     27  16  63 NW23G33   29.94R WCI  12
WEBSTER CITY * FLURRIES  34  16  47 NW28G37   29.93R WCI  20
IOWA FALLS *   CLOUDY    35  20  53 NW26G32   29.91R WCI  22
$$

IAZ007>011-017>019-026>030-037>042-050>054-066-211500-
   NORTHEAST IOWA

CITY           SKY/WX    TMP DP  RH WIND       PRES   REMARKS
CEDAR RAPIDS   CLOUDY    38  18  44 NW21G30   29.86R WCI  28
CHARLES CITY * CLOUDY    28  18  64 NW24G36   29.89R WCI  14
CLINTON *      LGT RAIN  38  25  59 NW20      29.81R WCI  28
DECORAH *      CLOUDY    28  14  54 NW17G46   29.83R WCI  16
DUBUQUE        CLOUDY    35  16  45 NW17G29   29.80R WCI  25
MONTICELLO *   CLOUDY    37  18  44 NW17G30   29.84R WCI  28
OELWEIN *      CLOUDY    32  19  59 NW24      29.86R WCI  19
WATERLOO       CLOUDY    32  16  51 NW24G37   29.88R WCI  19
$$

IAZ064-065-067-068-078-211500-
   EAST CENTRAL IOWA

CITY           SKY/WX    TMP DP  RH WIND       PRES   REMARKS
DAVENPORT      LGT RAIN  40  29  64 NW14G23   29.85R WCI  32
IOWA CITY      LGT RAIN  39  24  55 NW16G24   29.89R WCI  30
MT. PLEASANT * CLOUDY    42  26  51 NW10G16   29.88R
MUSCATINE *    CLOUDY    43  25  49 NW17G25   29.87R
QUAD CITIES    CLOUDY    44  27  51 NW17G25   29.82R
$$

IAZ062-063-075>077-085>089-095>099-211500-
   SOUTHEAST IOWA

CITY           SKY/WX    TMP DP  RH WIND       PRES   REMARKS
BURLINGTON     CLOUDY    44  30  57 NW8       29.85R
FAIRFIELD *    CLOUDY    41  19  42 NW23G33   29.89R
FORT MADISON * CLOUDY    45  30  57 NW10      29.88R
KEOKUK *       CLOUDY    45  30  57 NW9       29.87R
OSKALOOSA *    LGT RAIN  37  26  66 NW15      29.92R WCI  27
OTTUMWA        LGT RAIN  38  26  62 NW20      29.91R WCI  28
WASHINGTON *   CLOUDY    39  25  56 NW20G26   29.90R WCI  30
$$

ABBREVIATIONS USED IN REMARKS
   TC - TEMPERATURES IN CELSIUS
  WCI - WIND CHILL INDEX
   HX - HEAT INDEX
  VSB - VISIBILITY
$$





USA.gov is the U.S. government's official web portal to all federal, state and local government web resources and services.